Time,TemperatureF,DewpointF,PressureIn,WindDirection,WindDirectionDegrees,WindSpeedMPH,WindSpeedGustMPH,Humidity,HourlyPrecipIn,Conditions,Clouds,dailyrainin,SolarRadiationWatts/m^2,SoftwareType,DateUTC
2013-09-01 00:02:00,77.0,45.0,-100.00,SE,129,4.0,14.0,32,0.00,,,0.00,0.000000,,2013-09-01 07:02:00,
2013-09-01 00:12:00,77.0,45.0,-100.00,SE,129,4.0,14.0,32,0.00,,,0.00,0.000000,,2013-09-01 07:12:00,
2013-09-01 00:42:00,75.0,43.0,-100.00,SE,139,2.0,8.0,32,0.00,,,0.00,0.000000,,2013-09-01 07:42:00,
2013-09-01 00:52:00,75.0,43.0,-100.00,SE,139,2.0,8.0,32,0.00,,,0.00,0.000000,,2013-09-01 07:52:00,
2013-09-01 01:02:00,75.0,43.0,-100.00,SE,139,2.0,8.0,32,0.00,,,0.00,0.000000,,2013-09-01 08:02:00,
2013-09-01 01:11:00,75.0,43.0,-100.00,SE,139,2.0,8.0,32,0.00,,,0.00,0.000000,,2013-09-01 08:11:00,
2013-09-01 01:43:00,73.0,49.0,-100.00,SE,138,4.0,10.0,42,0.00,,,0.00,0.000000,,2013-09-01 08:43:00,
2013-09-01 01:52:00,73.0,49.0,-100.00,SE,138,4.0,10.0,42,0.00,,,0.00,0.000000,,2013-09-01 08:52:00,
2013-09-01 02:02:00,73.0,49.0,-100.00,SE,138,4.0,10.0,42,0.00,,,0.00,0.000000,,2013-09-01 09:02:00,
2013-09-01 02:11:00,73.0,49.0,-100.00,SE,138,4.0,10.0,42,0.00,,,0.00,0.000000,,2013-09-01 09:11:00,
2013-09-01 02:43:00,73.0,46.0,-100.00,SSE,153,2.0,11.0,38,0.00,,,0.00,0.000000,,2013-09-01 09:43:00,
2013-09-01 02:53:00,73.0,46.0,-100.00,SSE,153,2.0,11.0,38,0.00,,,0.00,0.000000,,2013-09-01 09:53:00,
2013-09-01 03:03:00,73.0,46.0,-100.00,SSE,153,2.0,11.0,38,0.00,,,0.00,0.000000,,2013-09-01 10:03:00,
2013-09-01 03:12:00,73.0,46.0,-100.00,SSE,153,2.0,11.0,38,0.00,,,0.00,0.000000,,2013-09-01 10:12:00,
2013-09-01 03:42:00,72.0,46.0,-100.00,SSE,167,2.0,8.0,40,0.00,,,-99.99,0.000000,,2013-09-01 10:42:00,
2013-09-01 03:53:00,72.0,46.0,-100.00,SSE,167,2.0,8.0,40,0.00,,,-99.99,0.000000,,2013-09-01 10:53:00,
2013-09-01 04:02:00,72.0,46.0,-100.00,SSE,167,2.0,8.0,40,0.00,,,-99.99,0.000000,,2013-09-01 11:02:00,
2013-09-01 04:12:00,72.0,46.0,-100.00,SSE,167,2.0,8.0,40,0.00,,,-99.99,0.000000,,2013-09-01 11:12:00,
2013-09-01 04:42:00,68.0,48.0,-100.00,North,8,2.0,3.0,48,0.00,,,0.00,0.000000,,2013-09-01 11:42:00,
2013-09-01 04:52:00,68.0,48.0,-100.00,North,8,2.0,3.0,48,0.00,,,0.00,0.000000,,2013-09-01 11:52:00,
2013-09-01 05:01:00,68.0,48.0,-100.00,North,8,2.0,3.0,48,0.00,,,0.00,0.000000,,2013-09-01 12:01:00,
2013-09-01 05:12:00,68.0,48.0,-100.00,North,8,2.0,3.0,48,0.00,,,0.00,0.000000,,2013-09-01 12:12:00,
2013-09-01 05:42:00,66.0,50.0,-100.00,SSE,148,1.0,2.0,56,0.00,,,0.00,0.000000,,2013-09-01 12:42:00,
2013-09-01 05:52:00,66.0,50.0,-100.00,SSE,148,1.0,2.0,56,0.00,,,0.00,0.000000,,2013-09-01 12:52:00,
2013-09-01 06:01:00,66.0,50.0,-100.00,SSE,148,1.0,2.0,56,0.00,,,0.00,0.000000,,2013-09-01 13:01:00,
2013-09-01 06:11:00,66.0,50.0,-100.00,SSE,148,1.0,2.0,56,0.00,,,0.00,0.000000,,2013-09-01 13:11:00,
2013-09-01 06:42:00,64.0,49.0,-100.00,SE,127,1.0,4.0,59,0.00,,,0.00,0.000000,,2013-09-01 13:42:00,
2013-09-01 06:52:00,64.0,49.0,-100.00,SE,127,1.0,4.0,59,0.00,,,0.00,0.000000,,2013-09-01 13:52:00,
2013-09-01 07:02:00,64.0,49.0,-100.00,SE,127,1.0,4.0,59,0.00,,,0.00,0.000000,,2013-09-01 14:02:00,
2013-09-01 07:11:00,64.0,49.0,-100.00,SE,127,1.0,4.0,59,0.00,,,0.00,0.000000,,2013-09-01 14:11:00,
2013-09-01 07:42:00,66.0,53.0,-100.00,SSE,156,2.0,3.0,63,0.00,,,0.00,7.000000,,2013-09-01 14:42:00,
2013-09-01 07:52:00,66.0,53.0,-100.00,SSE,156,2.0,3.0,63,0.00,,,0.00,7.000000,,2013-09-01 14:52:00,
2013-09-01 08:02:00,66.0,53.0,-100.00,SSE,156,2.0,3.0,63,0.00,,,0.00,7.000000,,2013-09-01 15:02:00,
2013-09-01 08:11:00,66.0,53.0,-100.00,SSE,156,2.0,3.0,63,0.00,,,0.00,7.000000,,2013-09-01 15:11:00,
2013-09-01 08:13:00,70.0,53.0,-100.00,SSE,148,2.0,4.0,55,0.00,,,0.00,96.000000,,2013-09-01 15:13:00,
2013-09-01 08:45:00,70.0,53.0,-100.00,SSE,148,2.0,4.0,55,0.00,,,0.00,96.000000,,2013-09-01 15:45:00,
2013-09-01 08:55:00,70.0,53.0,-100.00,SSE,148,2.0,4.0,55,0.00,,,0.00,96.000000,,2013-09-01 15:55:00,
2013-09-01 09:05:00,70.0,53.0,-100.00,SSE,148,2.0,4.0,55,0.00,,,0.00,96.000000,,2013-09-01 16:05:00,
2013-09-01 09:43:00,75.0,53.0,-100.00,SSE,161,2.0,6.0,47,0.00,,,0.00,224.000000,,2013-09-01 16:43:00,
2013-09-01 09:53:00,75.0,53.0,-100.00,SSE,161,2.0,6.0,47,0.00,,,0.00,224.000000,,2013-09-01 16:53:00,
2013-09-01 10:03:00,75.0,53.0,-100.00,SSE,161,2.0,6.0,47,0.00,,,0.00,224.000000,,2013-09-01 17:03:00,
2013-09-01 10:12:00,75.0,53.0,-100.00,SSE,161,2.0,6.0,47,0.00,,,0.00,224.000000,,2013-09-01 17:12:00,
2013-09-01 10:52:00,81.0,52.0,-100.00,SSE,159,3.0,9.0,37,0.00,,,0.00,441.000000,,2013-09-01 17:52:00,
2013-09-01 11:02:00,81.0,52.0,-100.00,SSE,159,3.0,9.0,37,0.00,,,0.00,441.000000,,2013-09-01 18:02:00,
2013-09-01 11:12:00,81.0,52.0,-100.00,SSE,159,3.0,9.0,37,0.00,,,0.00,441.000000,,2013-09-01 18:12:00,
2013-09-01 11:42:00,81.0,52.0,-100.00,SSW,208,7.0,11.0,37,0.00,,,0.00,507.000000,,2013-09-01 18:42:00,
2013-09-01 11:52:00,81.0,52.0,-100.00,SSW,208,7.0,11.0,37,0.00,,,0.00,507.000000,,2013-09-01 18:52:00,
2013-09-01 12:02:00,81.0,52.0,-100.00,SSW,208,7.0,11.0,37,0.00,,,0.00,507.000000,,2013-09-01 19:02:00,
2013-09-01 12:12:00,81.0,52.0,-100.00,SSW,208,7.0,11.0,37,0.00,,,0.00,507.000000,,2013-09-01 19:12:00,
2013-09-01 12:42:00,85.0,49.0,-100.00,SSW,199,6.0,11.0,29,0.00,,,0.00,598.000000,,2013-09-01 19:42:00,
2013-09-01 12:52:00,85.0,49.0,-100.00,SSW,199,6.0,11.0,29,0.00,,,0.00,598.000000,,2013-09-01 19:52:00,
2013-09-01 13:02:00,85.0,49.0,-100.00,SSW,199,6.0,11.0,29,0.00,,,0.00,598.000000,,2013-09-01 20:02:00,
2013-09-01 13:12:00,85.0,49.0,-100.00,SSW,199,6.0,11.0,29,0.00,,,0.00,598.000000,,2013-09-01 20:12:00,
2013-09-01 13:42:00,88.0,49.0,-100.00,SSW,205,7.0,12.0,26,0.00,,,0.00,711.000000,,2013-09-01 20:42:00,
2013-09-01 13:52:00,88.0,49.0,-100.00,SSW,205,7.0,12.0,26,0.00,,,0.00,711.000000,,2013-09-01 20:52:00,
2013-09-01 14:02:00,88.0,49.0,-100.00,SSW,205,7.0,12.0,26,0.00,,,0.00,711.000000,,2013-09-01 21:02:00,
2013-09-01 14:11:00,88.0,49.0,-100.00,SSW,205,7.0,12.0,26,0.00,,,0.00,711.000000,,2013-09-01 21:11:00,
2013-09-01 14:13:00,92.0,48.0,-100.00,SSW,211,7.0,12.0,22,0.00,,,0.00,773.000000,,2013-09-01 21:13:00,
2013-09-01 14:44:00,92.0,48.0,-100.00,SSW,211,7.0,12.0,22,0.00,,,0.00,773.000000,,2013-09-01 21:44:00,
2013-09-01 14:55:00,92.0,48.0,-100.00,SSW,211,7.0,12.0,22,0.00,,,0.00,773.000000,,2013-09-01 21:55:00,
2013-09-01 15:04:00,92.0,48.0,-100.00,SSW,211,7.0,12.0,22,0.00,,,0.00,773.000000,,2013-09-01 22:04:00,
2013-09-01 15:43:00,94.0,44.0,-100.00,SSW,208,7.0,12.0,18,0.00,,,0.00,564.000000,,2013-09-01 22:43:00,
2013-09-01 15:53:00,94.0,44.0,-100.00,SSW,208,7.0,12.0,18,0.00,,,0.00,564.000000,,2013-09-01 22:53:00,
2013-09-01 16:03:00,94.0,44.0,-100.00,SSW,208,7.0,12.0,18,0.00,,,0.00,564.000000,,2013-09-01 23:03:00,
2013-09-01 16:12:00,94.0,44.0,-100.00,SSW,208,7.0,12.0,18,0.00,,,0.00,564.000000,,2013-09-01 23:12:00,
2013-09-01 16:42:00,96.0,47.0,-100.00,South,180,4.0,13.0,19,0.00,,,0.00,640.000000,,2013-09-01 23:42:00,
2013-09-01 16:53:00,96.0,47.0,-100.00,South,180,4.0,13.0,19,0.00,,,0.00,640.000000,,2013-09-01 23:53:00,
2013-09-01 17:02:00,96.0,47.0,-100.00,South,180,4.0,13.0,19,0.00,,,0.00,640.000000,,2013-09-02 00:02:00,
2013-09-01 17:11:00,96.0,47.0,-100.00,South,180,4.0,13.0,19,0.00,,,0.00,640.000000,,2013-09-02 00:11:00,
2013-09-01 17:42:00,93.0,51.0,-100.00,SSW,204,8.0,15.0,24,0.00,,,0.00,444.000000,,2013-09-02 00:42:00,
2013-09-01 17:52:00,93.0,51.0,-100.00,SSW,204,8.0,15.0,24,0.00,,,0.00,444.000000,,2013-09-02 00:52:00,
2013-09-01 18:02:00,93.0,51.0,-100.00,SSW,204,8.0,15.0,24,0.00,,,0.00,444.000000,,2013-09-02 01:02:00,
2013-09-01 18:12:00,93.0,51.0,-100.00,SSW,204,8.0,15.0,24,0.00,,,0.00,444.000000,,2013-09-02 01:12:00,
2013-09-01 18:42:00,91.0,49.0,-100.00,South,190,6.0,14.0,24,0.00,,,0.00,309.000000,,2013-09-02 01:42:00,
2013-09-01 18:52:00,91.0,49.0,-100.00,South,190,6.0,14.0,24,0.00,,,0.00,309.000000,,2013-09-02 01:52:00,
2013-09-01 19:02:00,91.0,49.0,-100.00,South,190,6.0,14.0,24,0.00,,,0.00,309.000000,,2013-09-02 02:02:00,
2013-09-01 19:12:00,91.0,49.0,-100.00,South,190,6.0,14.0,24,0.00,,,0.00,309.000000,,2013-09-02 02:12:00,
2013-09-01 19:42:00,85.0,45.0,-100.00,SSE,167,3.0,13.0,25,0.00,,,-99.99,37.000000,,2013-09-02 02:42:00,
2013-09-01 19:52:00,85.0,45.0,-100.00,SSE,167,3.0,13.0,25,0.00,,,-99.99,37.000000,,2013-09-02 02:52:00,
2013-09-01 20:02:00,85.0,45.0,-100.00,SSE,167,3.0,13.0,25,0.00,,,-99.99,37.000000,,2013-09-02 03:02:00,
2013-09-01 20:11:00,85.0,45.0,-100.00,SSE,167,3.0,13.0,25,0.00,,,-99.99,37.000000,,2013-09-02 03:11:00,
2013-09-01 20:13:00,82.0,45.0,-100.00,SSE,163,3.0,13.0,27,0.00,,,0.00,2.000000,,2013-09-02 03:13:00,
2013-09-01 20:44:00,82.0,45.0,-100.00,SSE,163,3.0,13.0,27,0.00,,,0.00,2.000000,,2013-09-02 03:44:00,
2013-09-01 20:56:00,82.0,45.0,-100.00,SSE,163,3.0,13.0,27,0.00,,,0.00,2.000000,,2013-09-02 03:56:00,
2013-09-01 21:04:00,82.0,45.0,-100.00,SSE,163,3.0,13.0,27,0.00,,,0.00,2.000000,,2013-09-02 04:04:00,
2013-09-01 21:44:00,81.0,45.0,-100.00,SE,144,2.0,6.0,28,0.00,,,0.00,0.000000,,2013-09-02 04:44:00,
2013-09-01 21:54:00,81.0,45.0,-100.00,SE,144,2.0,6.0,28,0.00,,,0.00,0.000000,,2013-09-02 04:54:00,
2013-09-01 22:03:00,81.0,45.0,-100.00,SE,144,2.0,6.0,28,0.00,,,0.00,0.000000,,2013-09-02 05:03:00,
2013-09-01 22:12:00,81.0,45.0,-100.00,SE,144,2.0,6.0,28,0.00,,,0.00,0.000000,,2013-09-02 05:12:00,
2013-09-01 22:44:00,79.0,48.0,-100.00,SE,134,5.0,13.0,34,0.00,,,0.00,0.000000,,2013-09-02 05:44:00,
2013-09-01 22:52:00,79.0,48.0,-100.00,SE,134,5.0,13.0,34,0.00,,,0.00,0.000000,,2013-09-02 05:52:00,
2013-09-01 23:03:00,79.0,48.0,-100.00,SE,134,5.0,13.0,34,0.00,,,0.00,0.000000,,2013-09-02 06:03:00,
2013-09-01 23:12:00,79.0,48.0,-100.00,SE,134,5.0,13.0,34,0.00,,,0.00,0.000000,,2013-09-02 06:12:00,
2013-09-01 23:43:00,78.0,51.0,-100.00,South,172,3.0,12.0,39,0.00,,,0.00,0.000000,,2013-09-02 06:43:00,
2013-09-01 23:52:00,78.0,51.0,-100.00,South,172,3.0,12.0,39,0.00,,,0.00,0.000000,,2013-09-02 06:52:00,